Location: Asheville, NC
(35.6000°N, 82.5500°W)
Time: 02:54:16
(UTC-05:00)

Vanguard 1 Rocket - Pass Details

Date: 08 December 2017
Orbit: 656 x 4222 km, 34.3° (Epoch: 21 January)

Event Time Altitude Azimuth Distance (km) Brightness Sun altitude
Rises 00:31:20 0° 287° (WNW) 7,405 12.1 -77.0°
Reaches altitude 10° 00:35:54 10° 284° (WNW) 6,713 11.7 -76.8°
Enters shadow 00:37:48 14° 282° (WNW) 6,442 11.6 -76.7°
Maximum altitude 00:59:29 58° 213° (SSW) 4,628 - -74.8°
Exits shadow 01:20:34 14° 142° (SE) 6,212 11.5 -71.9°
Drops below altitude 10° 01:22:03 10° 141° (SE) 6,423 11.6 -71.7°
Sets 01:26:21 0° 137° (SE) 7,081 12.0 -71.0°
